Weather History for KWST - March, 2014

Change the Weather History Date:

Monday, March 31, 2014

  Actual Average (KGON) Record (KGON)
Temperature  
Mean Temperature 40 °F -  
Max Temperature 43 °F 51 °F 73 °F (1986)
Min Temperature 36 °F 33 °F 19 °F (1964)
Degree Days  
Heating Degree Days 26    
Moisture  
Dew Point 33 °F    
Average Humidity 85    
Maximum Humidity 93    
Minimum Humidity 65    
Precipitation  
Precipitation 0.11 in - - ()
Sea Level Pressure  
Sea Level Pressure 29.82 in    
Wind  
Wind Speed 12 mph (NNW)    
Max Wind Speed 20 mph    
Max Gust Speed 30 mph    
Visibility 8 miles    
Events Rain    
Averages and records for this station are not official NWS values.
T = Trace of Precipitation, MM = Missing Value Source: NWS Daily Summary

Daily Weather History Graph

Daily Weather History Graph

Search for Another Location

Airport or City:

Trip Planner

Search our weather history database for the weather conditions in past years. The results will help you decide how hot, cold, wet, or windy it might be!

Date:

Astronomy

Mar. 31, 2014 Rise Set
Actual Time 6:32 AM EDT 7:11 PM EDT
Civil Twilight 6:04 AM EDT 7:39 PM EDT
Nautical Twilight 5:31 AM EDT 8:12 PM EDT
Astronomical Twilight 4:57 AM EDT 8:46 PM EDT
Moon 6:53 AM EDT (3/31) 8:27 PM EDT (3/31)
Length of Visible Light 13h 34m
Length of Day
12h 39m
New Moon, 1% of the Moon is Illuminated
Mar 31
New Moon
Apr 7
First Quarter
Apr 15
Full
Apr 22
Last Quarter
Apr 29
New

Hourly Weather History & Observations

Time (EDT) Temp. Windchill Dew Point Humidity Pressure Visibility Wind Dir Wind Speed Gust Speed Precip Events Conditions
12:53 AM 37.9 °F 29.2 °F 34.0 °F 86% 29.66 in 10.0 mi North 15.0 mph 21.9 mph N/A   Overcast
1:53 AM 37.0 °F 28.1 °F 33.1 °F 86% 29.66 in 10.0 mi NNE 15.0 mph 25.3 mph N/A   Overcast
2:53 AM 37.0 °F 29.3 °F 33.1 °F 86% 29.67 in 10.0 mi North 11.5 mph 20.7 mph N/A   Overcast
3:53 AM 37.0 °F 28.9 °F 34.0 °F 89% 29.68 in 10.0 mi North 12.7 mph - 0.00 in   Overcast
4:53 AM 36.0 °F 27.1 °F 34.0 °F 93% 29.69 in 10.0 mi North 13.8 mph - 0.03 in   Overcast
5:30 AM 36.0 °F 28.5 °F 33.1 °F 89% 29.69 in 10.0 mi North 10.4 mph 20.7 mph N/A   Overcast
5:53 AM 36.0 °F 29.6 °F 34.0 °F 93% 29.70 in 9.0 mi North 8.1 mph - 0.00 in Rain Light Rain
6:03 AM 36.0 °F 29.0 °F 34.0 °F 93% 29.70 in 8.0 mi North 9.2 mph - 0.00 in Rain Light Rain
6:19 AM 37.0 °F 29.8 °F 34.0 °F 89% 29.71 in 10.0 mi North 10.4 mph - 0.00 in   Overcast
6:53 AM 36.0 °F 28.0 °F 33.1 °F 89% 29.73 in 5.0 mi North 11.5 mph - 0.00 in   Overcast
7:29 AM 37.0 °F 28.9 °F 34.0 °F 89% 29.75 in 10.0 mi North 12.7 mph 19.6 mph N/A   Overcast
7:53 AM 37.0 °F 29.3 °F 34.0 °F 89% 29.76 in 10.0 mi North 11.5 mph 18.4 mph N/A   Overcast
8:00 AM 37.0 °F 30.4 °F 34.0 °F 89% 29.77 in 10.0 mi North 9.2 mph - N/A   Overcast
8:53 AM 37.0 °F 31.6 °F 35.1 °F 93% 29.79 in 9.0 mi North 6.9 mph - 0.00 in   Overcast
9:23 AM 37.9 °F 27.9 °F 34.0 °F 86% 29.80 in 10.0 mi North 19.6 mph 25.3 mph N/A   Overcast
9:53 AM 39.0 °F 29.9 °F 34.0 °F 82% 29.81 in 10.0 mi North 17.3 mph 26.5 mph 0.00 in   Overcast
10:53 AM 39.9 °F 32.1 °F 33.1 °F 77% 29.81 in 10.0 mi North 13.8 mph 23.0 mph 0.00 in   Overcast
11:53 AM 39.9 °F 32.9 °F 33.1 °F 77% 29.82 in 10.0 mi North 11.5 mph 29.9 mph 0.00 in Rain Light Rain
12:05 PM 39.0 °F 31.4 °F 32.0 °F 76% 29.82 in 10.0 mi North 12.7 mph 21.9 mph 0.00 in Rain Light Rain
12:14 PM 37.9 °F 30.5 °F 33.1 °F 83% 29.82 in 7.0 mi North 11.5 mph 20.7 mph 0.00 in Rain Light Rain
12:33 PM 36.0 °F 29.0 °F 33.1 °F 89% 29.83 in 2.5 mi North 9.2 mph - 0.04 in Rain Rain
12:40 PM 36.0 °F 29.6 °F 33.1 °F 89% 29.83 in 5.0 mi North 8.1 mph - 0.05 in Rain Light Rain
12:53 PM 36.0 °F 30.3 °F 34.0 °F 93% 29.84 in 6.0 mi NNW 6.9 mph - 0.05 in Rain Light Rain
1:02 PM 36.0 °F 28.0 °F 34.0 °F 93% 29.84 in 3.0 mi NNW 11.5 mph 18.4 mph 0.01 in Rain Light Rain
1:09 PM 36.0 °F 30.3 °F 34.0 °F 93% 29.84 in 4.0 mi Variable 6.9 mph 18.4 mph 0.01 in Rain Light Rain
1:21 PM 36.0 °F 30.3 °F 34.0 °F 93% 29.84 in 9.0 mi NNW 6.9 mph - 0.01 in   Overcast
1:26 PM 36.0 °F 31.1 °F 34.0 °F 93% 29.84 in 10.0 mi NNW 5.8 mph - 0.01 in Rain Light Rain
1:49 PM 37.4 °F 30.8 °F 33.8 °F 87% 29.84 in 10.0 mi North 9.2 mph - 0.01 in   Overcast
1:53 PM 37.9 °F 32.1 °F 34.0 °F 86% 29.85 in 10.0 mi North 8.1 mph - 0.01 in   Overcast
2:15 PM 37.9 °F 32.7 °F 35.1 °F 89% 29.85 in 3.0 mi Variable 6.9 mph - 0.01 in Rain Light Rain
2:27 PM 37.0 °F 29.8 °F 34.0 °F 89% 29.85 in 3.0 mi NNW 10.4 mph - 0.02 in Rain Light Rain
2:34 PM 37.0 °F 29.8 °F 35.1 °F 93% 29.85 in 4.0 mi NNW 10.4 mph - 0.02 in Rain Light Rain
2:41 PM 37.9 °F 31.5 °F 35.1 °F 89% 29.86 in 8.0 mi NNW 9.2 mph - 0.02 in   Overcast
2:53 PM 37.9 °F 31.5 °F 35.1 °F 89% 29.86 in 10.0 mi NNW 9.2 mph - 0.02 in   Overcast
3:09 PM 37.0 °F 29.8 °F 35.1 °F 93% 29.86 in 2.5 mi NNW 10.4 mph - 0.00 in   Overcast
3:18 PM 37.0 °F 28.1 °F 35.1 °F 93% 29.87 in 2.5 mi NNW 15.0 mph 20.7 mph 0.00 in Rain Light Rain
3:27 PM 37.0 °F 28.9 °F 35.1 °F 93% 29.87 in 6.0 mi North 12.7 mph 20.7 mph 0.00 in Rain Light Rain
3:49 PM 39.2 °F 33.6 °F 35.6 °F 87% 29.88 in 10.0 mi NNW 8.1 mph - 0.00 in   Overcast
3:53 PM 39.0 °F 32.8 °F 36.0 °F 89% 29.88 in 10.0 mi NNW 9.2 mph - 0.00 in   Overcast
4:53 PM 41.0 °F 34.7 °F 34.0 °F 76% 29.88 in 10.0 mi North 10.4 mph - N/A   Overcast
5:53 PM 43.0 °F 35.1 °F 32.0 °F 65% 29.90 in 10.0 mi NNW 17.3 mph 24.2 mph N/A   Overcast
6:53 PM 42.1 °F 35.2 °F 30.9 °F 65% 29.93 in 10.0 mi NNW 12.7 mph 20.7 mph N/A   Overcast
7:53 PM 41.0 °F 35.2 °F 30.9 °F 67% 29.96 in 10.0 mi NNW 9.2 mph 19.6 mph N/A   Overcast
8:53 PM 39.9 °F 34.5 °F 30.0 °F 68% 29.97 in 10.0 mi NW 8.1 mph - N/A   Overcast
9:53 PM 39.9 °F 32.9 °F 30.0 °F 68% 29.99 in 10.0 mi NNW 11.5 mph 19.6 mph N/A   Overcast
10:53 PM 39.0 °F 32.3 °F 28.9 °F 67% 29.99 in 10.0 mi North 10.4 mph 23.0 mph N/A   Overcast
11:53 PM 39.0 °F 32.3 °F 28.0 °F 65% 30.01 in 10.0 mi North 10.4 mph - N/A   Overcast